Regional Weather Roundup
Issued by NWS

Home | Current Version | Previous Version | Text Only | Print | Product List | Glossary On
Versions: 1 2 3 4 5 6 7 8 9 10 11 12 13 14 15 16 17 18 19 20 21 22 23 24 25 26 27 28 29 30 31 32 33 34 35 36 37 38 39 40 41 42 43 44 45 46 47 48 49 50
000
ASUS43 KTOP 011108
RWRKS

WEATHER ROUNDUP FOR KANSAS
NATIONAL WEATHER SERVICE GOODLAND KS
600 AM CDT MON SEP 01 2014

NOTE:  "FAIR" INDICATES FEW OR NO CLOUDS BELOW 12,000 FEET WITH NO
SIGNIFICANT WEATHER AND/OR OBSTRUCTIONS TO VISIBILITY.

KSZ001>006-013>018-027>032-041>047-011200-
NORTHWEST KANSAS

CITY           SKY/WX    TMP DP  RH WIND       PRES   REMARKS
GOODLAND       PTCLDY    52  50  93 CALM      30.00R
HAYS           PTCLDY    63  57  82 NW6       29.86S
HILL CITY      CLEAR     59  55  87 NW8       29.90R
RUSSELL        PTCLDY    64  63  96 SW7       29.85R
$$

KSZ061>065-074>080-084>089-011200-
SOUTHWEST KANSAS

CITY           SKY/WX    TMP DP  RH WIND       PRES   REMARKS
DODGE CITY     CLEAR     61  58  90 N9        29.88R
ELKHART          N/A     60  51  72 N10         N/A
GARDEN CITY    CLEAR     61  58  90 N14       29.90R
GREAT BEND     CLEAR     63  59  88 NW6       29.87R
LIBERAL        CLEAR     64  55  72 N12       29.89R
PRATT          CLEAR     64  59  82 E10       29.86R
$$

KSZ066>073-081>083-090>101-011200-
SOUTHEAST KANSAS

CITY           SKY/WX    TMP DP  RH WIND       PRES   REMARKS
CHANUTE        TSTM      65  63  93 E15       29.91F FOG
COFFEYVILLE    CLOUDY    67  64  90 E7        29.93R
HUTCHINSON     CLOUDY    65  61  87 SE15      29.85S
MEDICINE LODGE   N/A     68  61  78 E15G22    29.82R
NEWTON         CLOUDY    63  57  82 SE12      29.90S
PARSONS        LGT RAIN  66  62  87 VRB6      29.93S
WICHITA INTL   MOCLDY    67  60  78 E15G22    29.86S
WICHITA JABRA  CLOUDY    65  62  90 E9        29.87S
WICHITA MCCONL CLOUDY    67  63  88 E14       29.87R
WINFIELD       CLOUDY    68  61  78 E13G21    29.89R
$$

KSZ007>012-019>026-033>040-048>060-102>105-011200-
NORTHEAST KANSAS

CITY           SKY/WX    TMP DP  RH WIND       PRES   REMARKS
CONCORDIA      PTCLDY    62  62 100 W7        29.81R
EMPORIA        LGT RAIN  63  63 100 S13       29.85S
LAWRENCE       CLOUDY   N/A N/A N/A S10       29.80R
MANHATTAN      MOCLDY    65  32  29 SW9       29.83R
OLATHE IND     CLOUDY    65  64  97 S14       29.81S
OLATHE EXE     CLOUDY    65  63  93 S9        29.80R
SALINA         MOCLDY    63  61  93 CALM      29.83R
TOPEKA BILLARD CLOUDY    68  66  93 S9        29.81R
TOPEKA FORBES  CLOUDY    66  64  93 S16G23    29.81R
$$



USA.gov is the U.S. government's official web portal to all federal, state and local government web resources and services.